Shelton, WA
on Thursday, November 29, 2012

Thursday
Previous Day Next Day
Daily Summary
 ActualAverage (KOLM)Record (KOLM)
Temperature
Mean Temperature °F / °C 40°F / 4°C  
Max Temperature 52°F / 11°C 47°F / 8°C 56°F / 13°C (1953)
Min Temperature 39°F / 4°C 34°F / 1°C 14°F / -10°C (1975)
Degree Days
Heating Degree Days 20 25  
Month to date heating degree days 626  
Since 1 July heating degree days 1420  
Cooling Degree Days 0 0  
Month to date cooling degree days 0  
Year to date cooling degree days 106  
Moisture
Dew Point 44°F / 7°C   
Average Humidity 92    
Maximum Humidity 100    
Minimum Humidity 74    
Precipitation
Precipitation 0.14 in / 3.56 cm 0.30 in / 7.62 cm 2.37 in / 6.02 cm (1995)
Month to date precipitation 8.33  
Year to date precipitation 42.24  
Wind
Wind Speed 2 mph / 3 km/h   
Max Wind Speed 10 mph / 16 km/h   
Max Gust Speed 17 mph / 27 km/h   
Visibility 9 miles / 14 kilometers   
Events Rain   

Key: T is trace of precipitation, MM is missing value
Source: NWS Daily Summary
Time(PST)TemperatureDew PointHumidity Pressure Visibility Wind DirectionWind SpeedGust SpeedPrecipitationEvents Conditions
12:05 AM 39.2°F / 4.0°C 39.2°F / 4.0°C 100% 29.68 in / 1005.0 hPa 2.0 miles / 3.2 kilometers Calm Calm - N/A   Overcast
12:14 AM 39.2°F / 4.0°C 39.2°F / 4.0°C 100% 29.67 in / 1004.6 hPa 1.8 miles / 2.8 kilometers Calm Calm - N/A   Overcast
12:22 AM 39.2°F / 4.0°C 39.2°F / 4.0°C 100% 29.67 in / 1004.6 hPa 3.0 miles / 4.8 kilometers Calm Calm - N/A   Overcast
12:35 AM 39.2°F / 4.0°C 39.2°F / 4.0°C 100% 29.67 in / 1004.6 hPa 6.0 miles / 9.7 kilometers Calm Calm - N/A   Overcast
12:53 AM 39.9°F / 4.4°C 39.9°F / 4.4°C 100% 29.67 in / 1004.7 hPa 8.0 miles / 12.9 kilometers Calm Calm - N/A   Overcast
1:30 AM 39.2°F / 4.0°C 39.2°F / 4.0°C 100% 29.65 in / 1003.9 hPa 10.0 miles / 16.1 kilometers Calm Calm - N/A   Overcast
1:53 AM 39.9°F / 4.4°C 39.9°F / 4.4°C 100% 29.66 in / 1004.2 hPa 10.0 miles / 16.1 kilometers Calm Calm - N/A   Overcast
2:53 AM 41.0°F / 5.0°C 41.0°F / 5.0°C 100% 29.64 in / 1003.7 hPa 10.0 miles / 16.1 kilometers Calm Calm - 0.00 in / 0.0 cm   Overcast
3:53 AM 42.1°F / 5.6°C 42.1°F / 5.6°C 100% 29.61 in / 1002.6 hPa 10.0 miles / 16.1 kilometers Calm Calm - 0.00 in / 0.0 cm   Overcast
4:53 AM 42.1°F / 5.6°C 42.1°F / 5.6°C 100% 29.56 in / 1001.0 hPa 9.0 miles / 14.5 kilometers Calm Calm - 0.00 in / 0.0 cm Rain Light Rain
5:53 AM 43.0°F / 6.1°C 43.0°F / 6.1°C 100% 29.54 in / 1000.2 hPa 10.0 miles / 16.1 kilometers Variable 3.5 mph / 5.6 km/h - 0.01 in / 0.3 cm Rain Light Rain
6:53 AM 46.0°F / 7.8°C 45.0°F / 7.2°C 96% 29.52 in / 999.6 hPa 10.0 miles / 16.1 kilometers NNE 5.8 mph / 9.3 km/h - 0.02 in / 0.5 cm Rain Light Rain
7:53 AM 46.4°F / 8.0°C 44.6°F / 7.0°C 93% 29.51 in / 999.2 hPa 10.0 miles / 16.1 kilometers WNW 3.5 mph / 5.6 km/h - N/A Rain Light Rain
8:53 AM 45.0°F / 7.2°C 45.0°F / 7.2°C 100% 29.56 in / 1001.0 hPa 10.0 miles / 16.1 kilometers Calm Calm - 0.04 in / 1.0 cm Rain Light Rain
9:53 AM 48.9°F / 9.4°C 46.0°F / 7.8°C 90% 29.58 in / 1001.5 hPa 10.0 miles / 16.1 kilometers SSE 9.2 mph / 14.8 km/h - 0.02 in / 0.5 cm Rain Light Rain
10:53 AM 50.0°F / 10.0°C 46.9°F / 8.3°C 89% 29.57 in / 1001.4 hPa 10.0 miles / 16.1 kilometers SSE 4.6 mph / 7.4 km/h - 0.01 in / 0.3 cm Rain Light Rain
11:53 AM 50.0°F / 10.0°C 46.0°F / 7.8°C 86% 29.58 in / 1001.5 hPa 10.0 miles / 16.1 kilometers SE 10.4 mph / 16.7 km/h - 0.00 in / 0.0 cm   Overcast
12:53 PM 50.0°F / 10.0°C 46.0°F / 7.8°C 86% 29.56 in / 1001.0 hPa 10.0 miles / 16.1 kilometers SSE 9.2 mph / 14.8 km/h 17.3 mph / 27.8 km/h 0.00 in / 0.0 cm   Overcast
1:53 PM 51.1°F / 10.6°C 46.9°F / 8.3°C 86% 29.56 in / 1000.8 hPa 10.0 miles / 16.1 kilometers Calm Calm - 0.00 in / 0.0 cm   Overcast
2:53 PM 50.0°F / 10.0°C 48.0°F / 8.9°C 93% 29.55 in / 1000.5 hPa 10.0 miles / 16.1 kilometers Calm Calm - 0.00 in / 0.0 cm   Overcast
3:53 PM 52.0°F / 11.1°C 45.0°F / 7.2°C 77% 29.54 in / 1000.1 hPa 10.0 miles / 16.1 kilometers SSE 5.8 mph / 9.3 km/h - N/A   Overcast
4:53 PM 51.1°F / 10.6°C 45.0°F / 7.2°C 80% 29.52 in / 999.6 hPa 10.0 miles / 16.1 kilometers SSE 4.6 mph / 7.4 km/h - N/A   Overcast
5:53 PM 51.1°F / 10.6°C 44.1°F / 6.7°C 77% 29.51 in / 999.1 hPa 10.0 miles / 16.1 kilometers SSE 4.6 mph / 7.4 km/h - 0.00 in / 0.0 cm   Overcast
6:53 PM 52.0°F / 11.1°C 44.1°F / 6.7°C 74% 29.49 in / 998.7 hPa 10.0 miles / 16.1 kilometers SSE 9.2 mph / 14.8 km/h - 0.00 in / 0.0 cm Rain Light Rain
7:53 PM 51.1°F / 10.6°C 43.0°F / 6.1°C 74% 29.48 in / 998.2 hPa 10.0 miles / 16.1 kilometers SE 4.6 mph / 7.4 km/h - 0.00 in / 0.0 cm   Overcast
8:53 PM 50.0°F / 10.0°C 45.0°F / 7.2°C 83% 29.48 in / 998.1 hPa 10.0 miles / 16.1 kilometers SE 8.1 mph / 13.0 km/h - N/A   Overcast
9:53 PM 46.9°F / 8.3°C 46.0°F / 7.8°C 97% 29.46 in / 997.5 hPa 10.0 miles / 16.1 kilometers Calm Calm - 0.01 in / 0.3 cm   Mostly Cloudy
10:53 PM 46.9°F / 8.3°C 46.0°F / 7.8°C 97% 29.44 in / 996.9 hPa 10.0 miles / 16.1 kilometers NE 4.6 mph / 7.4 km/h - 0.00 in / 0.0 cm Rain Light Rain
11:53 PM 46.9°F / 8.3°C 46.0°F / 7.8°C 97% 29.43 in / 996.5 hPa 10.0 miles / 16.1 kilometers Calm Calm - 0.03 in / 0.8 cm Rain Light Rain
Moon Phase
Nov. 29 Dec. 06 Dec. 13 Dec. 20 Dec. 28
Sunrise:07:36 AM (PST) Moon Rise:05:32 PM (PST)11/29
Sunset:04:25 PM (PST) Moon Set:08:28 AM (PST)11/29

Copyright © 2014 The Weather Underground, Inc.